Weather History for KTWF - October, 2013

Change the Weather History Date:

Tuesday, October 22, 2013

  Actual Average Record
Temperature  
Mean Temperature 52 °F -  
Max Temperature 70 °F 61 °F 82 °F (2003)
Min Temperature 33 °F 36 °F 21 °F (2008)
Degree Days  
Heating Degree Days 13 17  
Month to date heating degree days 361 288  
Since 1 July heating degree days 468 449  
Cooling Degree Days 0 0  
Month to date cooling degree days 0 0  
Year to date cooling degree days 1138 678  
Growing Degree Days 1 (Base 50)    
Moisture  
Dew Point 31 °F    
Average Humidity 50    
Maximum Humidity 75    
Minimum Humidity 25    
Precipitation  
Precipitation 0.00 in 0.02 in 0.36 in (2012)
Month to date precipitation 0.09 0.55  
Year to date precipitation 4.20 8.00  
Sea Level Pressure  
Sea Level Pressure 30.15 in    
Wind  
Wind Speed 5 mph (SW)    
Max Wind Speed 12 mph    
Max Gust Speed 13 mph    
Visibility 9 miles    
Events      
T = Trace of Precipitation, MM = Missing Value Source: NWS Daily Summary

Daily Weather History Graph

Daily Weather History Graph

Search for Another Location

Airport or City:

Trip Planner

Search our weather history database for the weather conditions in past years. The results will help you decide how hot, cold, wet, or windy it might be!

Date:

Astronomy

Oct. 22, 2013 Rise Set
Actual Time 7:59 AM MDT 6:44 PM MDT
Civil Twilight 7:30 AM MDT 7:13 PM MDT
Nautical Twilight 6:58 AM MDT 7:45 PM MDT
Astronomical Twilight 6:25 AM MDT 8:18 PM MDT
Moon 9:25 PM MDT (10/22) 11:34 AM MDT (10/22)
Length of Visible Light 11h 42m
Length of Day
10h 44m
Waning Gibbous, 86% of the Moon is Illuminated
Oct 22
Waning Gibbous
Oct 26
Last Quarter
Nov 3
New
Nov 9
First Quarter
Nov 17
Full

Hourly Weather History & Observations

Time (MDT) Temp. Windchill Dew Point Humidity Pressure Visibility Wind Dir Wind Speed Gust Speed Precip Events Conditions
12:53 AM 37.9 °F 35.5 °F 28.9 °F 70% 30.17 in 10.0 mi SW 3.5 mph - N/A   Clear
1:53 AM 39.0 °F 34.0 °F 28.9 °F 67% 30.16 in 10.0 mi South 6.9 mph - N/A   Clear
2:53 AM 39.9 °F 34.5 °F 28.9 °F 65% 30.17 in 10.0 mi South 8.1 mph - N/A   Clear
3:53 AM 39.0 °F 34.0 °F 28.9 °F 67% 30.16 in 10.0 mi South 6.9 mph - N/A   Clear
4:53 AM 36.0 °F - 28.0 °F 73% 30.16 in 10.0 mi Calm Calm - N/A   Clear
5:53 AM 33.1 °F - 26.1 °F 75% 30.17 in 10.0 mi Calm Calm - N/A   Clear
6:53 AM 37.0 °F 31.6 °F 28.0 °F 70% 30.20 in 10.0 mi South 6.9 mph - N/A   Clear
7:53 AM 37.9 °F 32.7 °F 28.0 °F 68% 30.22 in 10.0 mi South 6.9 mph - N/A   Clear
8:53 AM 43.0 °F 39.5 °F 30.9 °F 62% 30.21 in 10.0 mi South 5.8 mph - N/A   Clear
9:53 AM 53.1 °F - 32.0 °F 45% 30.20 in 7.0 mi Calm Calm - N/A   Clear
9:59 AM 51.8 °F - 35.6 °F 54% 30.25 in 2.5 mi North 3.5 mph - N/A   Partly Cloudy
10:00 AM 51.8 °F - 35.6 °F 54% 30.25 in 10.0 mi North 3.5 mph - N/A   Clear
10:53 AM 55.0 °F - 34.0 °F 45% 30.19 in 10.0 mi North 3.5 mph - N/A   Clear
12:53 PM 62.1 °F - 36.0 °F 38% 30.17 in 10.0 mi NNE 4.6 mph - N/A   Clear
1:53 PM 66.0 °F - 34.0 °F 30% 30.13 in 10.0 mi North 6.9 mph - N/A   Clear
2:53 PM 68.0 °F - 33.1 °F 27% 30.10 in 10.0 mi North 5.8 mph - N/A   Clear
3:53 PM 69.1 °F - 33.1 °F 26% 30.09 in 10.0 mi North 3.5 mph - N/A   Clear
4:53 PM 69.1 °F - 32.0 °F 25% 30.08 in 10.0 mi Variable 3.5 mph - N/A   Clear
5:53 PM 66.9 °F - 33.1 °F 28% 30.08 in 10.0 mi NW 4.6 mph - N/A   Clear
6:53 PM 57.0 °F - 32.0 °F 39% 30.09 in 4.0 mi WSW 3.5 mph - N/A   Haze
7:53 PM 54.0 °F - 32.0 °F 43% 30.10 in 3.0 mi WSW 5.8 mph - N/A   Haze
8:53 PM 46.0 °F 42.5 °F 30.9 °F 56% 30.11 in 10.0 mi South 6.9 mph - N/A   Clear
9:53 PM 48.9 °F - 30.9 °F 50% 30.08 in 10.0 mi South 10.4 mph - N/A   Clear
10:53 PM 48.0 °F - 30.0 °F 50% 30.09 in 10.0 mi SSW 8.1 mph - N/A   Clear
11:53 PM 44.1 °F 40.1 °F 30.0 °F 58% 30.09 in 10.0 mi SSW 6.9 mph - N/A   Clear